Location: Le Domaine
(47.0333°N, 76.5361°W)
Time: 07:42:48
(UTC-05:00)

Transit 2A - All Passes

Search period start: 17 November 2019 00:00
Search period end: 27 November 2019 00:00
Orbit: 601 x 957 km, 66.7° (Epoch: 16 November)

Date Brightness Start Highest point End Pass type
(mag) Time Alt. Az. Time Alt. Az. Time Alt. Az.
17 Nov - 11:22:20 10° SSE 11:25:29 17° ESE 11:28:29 10° ENE daylight
17 Nov - 13:03:09 10° SW 13:08:11 72° NW 13:12:48 10° NNE daylight
17 Nov - 14:49:16 10° WNW 14:52:05 15° NW 14:54:48 10° N daylight
17 Nov - 20:03:58 10° NNW 20:07:46 28° NE 20:11:36 10° ESE visible
17 Nov - 21:46:55 10° NW 21:50:59 39° WSW 21:55:10 10° S night (unlit)
18 Nov - 10:50:14 10° ESE 10:51:34 11° ESE 10:52:53 10° E daylight
18 Nov - 12:29:01 10° SSW 12:34:04 80° ESE 12:38:41 10° NE daylight
18 Nov - 14:14:12 10° W 14:17:42 20° NW 14:21:02 10° N daylight
18 Nov - 19:30:04 10° N 19:33:27 21° NE 19:36:51 10° E visible
18 Nov - 21:12:38 10° NW 21:16:56 60° WSW 21:21:21 10° SSE night (unlit)
19 Nov - 11:55:03 10° SSW 11:59:58 55° ESE 12:04:30 10° NE daylight
19 Nov - 13:39:19 10° W 13:43:22 26° NW 13:47:11 10° NNE daylight
19 Nov - 18:56:17 10° N 18:59:06 16° NE 19:01:54 10° ENE visible
19 Nov - 20:38:29 10° NW 20:42:50 89° WNW 20:47:20 10° SSE visible
19 Nov - 22:24:17 10° W 22:25:17 11° WSW 22:26:15 10° WSW night (unlit)
20 Nov - 11:21:18 10° S 11:25:56 37° ESE 11:30:13 10° NE daylight
20 Nov - 13:04:38 10° WSW 13:09:06 34° NW 13:13:15 10° NNE daylight
20 Nov - 18:22:38 10° N 18:24:40 13° NNE 18:26:41 10° ENE visible
20 Nov - 20:04:24 10° NNW 20:08:42 62° NE 20:13:09 10° SE visible
20 Nov - 21:48:37 10° WNW 21:51:23 17° WSW 21:54:12 10° SSW night (unlit)
21 Nov - 10:47:48 10° SSE 10:51:55 26° ESE 10:55:47 10° ENE daylight
21 Nov - 12:30:07 10° SW 12:34:52 47° NW 12:39:17 10° NNE daylight
21 Nov - 14:17:33 10° NW 14:19:06 11° NNW 14:20:38 10° N daylight
21 Nov - 17:49:37 10° NNE 17:50:11 10° NNE 17:50:46 10° NE visible
21 Nov - 19:30:22 10° NNW 19:34:31 42° NE 19:38:46 10° ESE visible
21 Nov - 21:13:53 10° WNW 21:17:26 24° WSW 21:21:05 10° SSW night (unlit)
22 Nov - 10:14:39 10° SSE 10:17:57 18° ESE 10:21:06 10° ENE daylight
22 Nov - 11:55:45 10° SW 12:00:42 67° NW 12:05:14 10° NNE daylight
22 Nov - 13:42:04 10° WNW 13:44:39 14° NNW 13:47:09 10° N daylight
22 Nov - 18:56:24 10° NNW 19:00:17 30° NE 19:04:14 10° ESE visible
22 Nov - 20:39:25 10° NW 20:43:27 36° WSW 20:47:35 10° S visible
23 Nov - 09:42:15 10° SE 09:44:02 12° ESE 09:45:46 10° E daylight
23 Nov - 11:21:34 10° SSW 11:26:34 86° ESE 11:31:09 10° NE daylight
23 Nov - 13:06:57 10° W 13:10:14 18° NW 13:13:25 10° N daylight
23 Nov - 18:22:30 10° NNW 18:25:59 23° NE 18:29:31 10° E visible
23 Nov - 20:05:08 10° NW 20:09:24 55° WSW 20:13:49 10° SSE visible
24 Nov - 10:47:34 10° SSW 10:52:28 59° ESE 10:56:59 10° NE daylight
24 Nov - 12:32:02 10° W 12:35:54 24° NW 12:39:34 10° NNE daylight
24 Nov - 17:48:41 10° N 17:51:38 17° NE 17:54:37 10° E visible
24 Nov - 19:30:57 10° NW 19:35:19 83° WSW 19:39:51 10° SSE visible
25 Nov - 10:13:46 10° S 10:18:25 40° ESE 10:22:43 10° NE daylight
25 Nov - 11:57:18 10° WSW 12:01:37 32° NW 12:05:40 10° NNE daylight
25 Nov - 17:15:00 10° N 17:17:14 14° NNE 17:19:27 10° ENE visible
25 Nov - 18:56:51 10° NNW 19:01:12 67° NE 19:05:41 10° SE visible
25 Nov - 20:41:15 10° WNW 20:43:50 15° WSW 20:46:27 10° SW visible
26 Nov - 09:40:13 10° S 09:44:24 28° ESE 09:48:19 10° NE daylight
26 Nov - 11:22:44 10° WSW 11:27:23 43° NW 11:31:43 10° NNE daylight
26 Nov - 13:10:33 10° NW 13:11:40 11° NNW 13:12:46 10° NNW daylight
26 Nov - 16:41:42 10° NNE 16:42:46 11° NNE 16:43:50 10° NE daylight
26 Nov - 18:22:49 10° NNW 18:27:01 46° NE 18:31:21 10° SE visible
26 Nov - 20:06:27 10° WNW 20:09:53 23° WSW 20:13:27 10° SSW visible
